パンスターズ彗星

C/2020 S4 ( PanSTARRS )

English version
Home page
Updated on March 23, 2024

---------------------------------------------------------------------

・ プロフィール

発見日 2020年9月16日
発見光度 21.3等
発見者 Pan-STARRS 1 telescope (Haleakala)

・ 写真集

・ 軌道要素

Epoch 2024 Mar. 31.0 TT = JDT 2460400.5
T 2023 Feb.  9.28755 TT                                 Rudenko
q   3.3697690            (2000.0)            P               Q
z  -0.0005777      Peri.   21.00601     -0.73117862     -0.60715595
 +/-0.0000006      Node   117.70646     +0.56504328     -0.79447613
e   1.0019467      Incl.   20.56749     +0.38223542     +0.01301277
>From 1867 observations 2020 Sept. 16-2024 Feb. 14, mean residual 0".8.

・ 星図

・ 光度変化

        m1 =  8.0 + 5 logΔ +  8.5 log r  [ ,0]  (              〜2023年 2月 9日)
        m1 = -0.7 + 5 logΔ + 25.0 log r  [0, ]  (2023年 2月 9日〜              )

---------------------------------------------------------------------

軌道要素はM.P.E.C. 2024-D126に掲載されたものです。
星図はステラナビゲータ Ver.10 (アストロアーツ) で作成したものです。
光度グラフはComet for Windowsで作成したものです。

---------------------------------------------------------------------

Copyright(C) Seiichi Yoshida (comet@aerith.net). All rights reserved.